Flag for Canada Weather past 2 weeks in Fort Nelson, British Columbia, Canada

Now
-20 °F

Passing clouds.


Feels Like: -31 °F
Forecast: -14 / -5 °F
Wind: 3 mph from Southwest

Location: Fort Nelson

Current Time: Jan 28, 2015 at 8:44:48 AM

Latest Report: Jan 28, 2015 at 8:00 AM


Visibility: 20 mi

Pressure: 30.57 "Hg

Humidity: 75%

Dew point: -26 °F

Location of Fort NelsonLocation

Historic Weather in Fort Nelson — Graph

°F

Fort Nelson temperature yesterday

Maximum temperature yesterday: 0 °F (at 12:00 AM)
Minimum temperature yesterday: -13 °F (at 10:00 PM)
Average temperature yesterday: -5 °F

Past Weeks' High & Low Weather Summary

 TemperatureHumidityPressure
High36 °F (Jan 16, 5:00 PM)100% (Jan 17, 7:00 PM)30.55 "Hg (Jan 17, 7:00 PM)
Low-20 °F (Jan 28, 7:00 AM)60% (Jan 16, 5:00 PM)29.30 "Hg (Jan 25, 1:00 AM)
Average13 °F88%29.80 "Hg
* Reported Jan 13 7:00 AM — Jan 28 7:00 AM, Fort Nelson, Weather by CustomWeather, © 2014

Note: Actual official high and low records may vary slightly from our data, if they occured in-between our weather recording intervals... More about our weather records

Advertising

Fort Nelson weather history for previous 24 hours

 ConditionsComfort  
Time TempWeatherWind HumidityBarometerVisibility
7:00 AM
Jan 28
-20 °FPassing clouds.2 mph83%30.55 "Hg15 mi
6:00 AM-18 °FClear.No wind75%30.54 "Hg15 mi
5:00 AM-17 °FPassing clouds.3 mph76%30.51 "Hg15 mi
4:00 AM-15 °FPassing clouds.No wind76%30.48 "Hg15 mi
3:00 AM-15 °FPassing clouds.2 mph76%30.46 "Hg15 mi
2:00 AM-13 °FPassing clouds.No wind76%30.43 "Hg15 mi
1:00 AM-13 °FLight snow. Partly cloudy.No wind76%30.40 "Hg15 mi
12:00 AM-13 °FLight snow. Partly cloudy.2 mph76%30.37 "Hg15 mi
11:00 PM
Jan 27
-13 °FClear.No wind76%30.34 "Hg15 mi
10:00 PM-13 °FClear.2 mph83%30.31 "Hg15 mi
9:00 PM-11 °FPassing clouds.No wind76%30.28 "Hg15 mi
8:00 PM-9 °FPassing clouds.2 mph77%30.25 "Hg15 mi
7:00 PM-8 °FPassing clouds.5 mph77%30.23 "Hg15 mi
6:00 PM-6 °FPassing clouds.3 mph77%30.20 "Hg15 mi
5:00 PM-4 °FPassing clouds.3 mph77%30.19 "Hg15 mi
4:00 PM-4 °FPartly sunny.5 mph77%30.19 "Hg30 mi
3:00 PM-2 °FPartly sunny.6 mph71%30.18 "Hg15 mi
2:00 PM-2 °FPartly sunny.2 mph77%30.19 "Hg15 mi
1:00 PM-2 °FPartly sunny.No wind77%30.19 "Hg15 mi
12:51 PM-2 °FPartly sunny.3 mph77%30.20 "Hg15 mi
12:00 PM-2 °FLight snow. Overcast.2 mph71%30.21 "Hg10 mi
11:00 AM-4 °FLight snow. Overcast.5 mph77%30.22 "Hg10 mi
10:00 AM-4 °FLight snow. Overcast.6 mph71%30.23 "Hg10 mi
9:00 AM-4 °FOvercast.8 mph77%30.23 "Hg15 mi
8:00 AM-4 °FLight snow. Passing clouds.7 mph77%30.22 "Hg15 mi
Weather by CustomWeather, © 2014

See weather overviewHow to use our weather pages